Pantelleria, Italy

9:29 AM CET on January 17, 2018 (GMT +0100)
Pantelleria Mil

Weather History for LICG - January, 2014

Change the Weather History Date:

Wednesday, January 29, 2014

  Actual Average Record
Temperature  
Mean Temperature 54 °F -  
Max Temperature 59 °F 57 °F 64 °F (2008)
Min Temperature 49 °F 49 °F 41 °F (2005)
Degree Days  
Heating Degree Days 11    
Growing Degree Days 4 (Base 50)    
Moisture  
Dew Point 47 °F    
Average Humidity 73    
Maximum Humidity 94    
Minimum Humidity 52    
Precipitation  
Precipitation 0.00 in 0.06 in - ()
Sea Level Pressure  
Sea Level Pressure 29.76 in    
Wind  
Wind Speed 14 mph ()    
Max Wind Speed 21 mph    
Max Gust Speed -    
Visibility 9.4 miles    
Events      
Averages and records for this station are not official NWS values.
T = Trace of Precipitation, MM = Missing Value Source: Averaged Metar Reports

Daily Weather History Graph

Daily Weather History Graph

Search for Another Location

Airport or City:

Trip Planner

Search our weather history database for the weather conditions in past years. The results will help you decide how hot, cold, wet, or windy it might be!

Date:

Astronomy

Jan. 29, 2014 Rise Set
Actual Time 7:16 AM CET 5:34 PM CET
Civil Twilight 6:49 AM CET 6:01 PM CET
Nautical Twilight 6:18 AM CET 6:32 PM CET
Astronomical Twilight 5:47 AM CET 7:03 PM CET
Moon 5:38 AM CET (1/29) 4:13 PM CET (1/29)
Length of Visible Light 11h 12m
Length of Day
10h 17m
Waning Crescent, 3% of the Moon is Illuminated
Jan 29
Waning Crescent
Jan 30
New
Feb 6
First Quarter
Feb 15
Full
Feb 22
Last Quarter

Hourly Weather History & Observations

Time (CET) Temp. Dew Point Humidity Pressure Visibility Wind Dir Wind Speed Gust Speed Precip Events Conditions
6:55 AM 50.0 °F 41.0 °F 71% 29.74 in - North - - N/A   Partly Cloudy
7:00 AM 50 °F 41 °F 62% 29.75 in 6 mi WSW 11.5 mph - -   Scattered Clouds
7:55 AM 50.0 °F 42.8 °F 76% 29.74 in - North - - N/A   Partly Cloudy
8:00 AM 49 °F 43 °F 72% 29.76 in 9 mi WSW 17.3 mph - -   Scattered Clouds
8:55 AM 53.6 °F 44.6 °F 72% 29.74 in 6.2 mi SW 17.3 mph - N/A   Partly Cloudy
9:00 AM 54 °F 44 °F 61% 29.76 in 11 mi SW 17.3 mph - -   Scattered Clouds
9:55 AM 55.4 °F 42.8 °F 63% 29.77 in - North - - N/A   Clear
10:00 AM 56 °F 43 °F 52% 29.78 in 11 mi WSW 17.3 mph - -   Scattered Clouds
10:55 AM 57.2 °F 48.2 °F 72% 29.77 in - North - - N/A   Partly Cloudy
11:00 AM 58 °F 48 °F 60% 29.78 in 11 mi SW 15.0 mph - -   Scattered Clouds
11:55 AM 57.2 °F 50.0 °F 77% 29.77 in - North - - N/A   Scattered Clouds
12:00 PM 58 °F 50 °F 66% 29.78 in 11 mi SW 20.7 mph - -   Partly Cloudy
12:55 PM 57.2 °F 50.0 °F 77% 29.77 in - North - - N/A   Scattered Clouds
1:00 PM 57 °F 50 °F 70% 29.78 in 11 mi SSW 20.7 mph - -   Partly Cloudy
1:55 PM 59.0 °F 51.8 °F 77% 29.77 in - North - - N/A   Partly Cloudy
2:00 PM 59 °F 51 °F 69% 29.77 in 11 mi South 19.6 mph - -   Scattered Clouds
2:55 PM 57.2 °F 48.2 °F 72% 29.77 in - North - - N/A   Partly Cloudy
3:00 PM 57 °F 48 °F 65% 29.77 in 11 mi SSW 20.7 mph - -   Scattered Clouds
3:55 PM 55.4 °F 50.0 °F 82% 29.74 in - North - - N/A   Clear
4:00 PM 55 °F 49 °F 75% 29.76 in 11 mi South 19.6 mph - -   Clear
4:55 PM 53.6 °F 48.2 °F 82% 29.74 in - North - - N/A   Clear
5:00 PM 54 °F 49 °F 77% 29.76 in 9 mi South 18.4 mph - -   Clear
5:55 PM 51.8 °F 48.2 °F 88% 29.74 in - North - - N/A   Clear
6:00 PM 52 °F 49 °F 86% 29.77 in 7 mi SSW 16.1 mph - -   Clear
6:55 PM 51.8 °F 50.0 °F 94% 29.74 in - North - - N/A   Clear
7:00 PM 52 °F 49 °F 88% 29.77 in 6 mi South 13.8 mph - -   Clear